Tracking 19224 objects as of 22-Jul-2018
HD Live streaming from Space Station
objects crossing your sky now

FENGYUN 1C DEB

Track FENGYUN 1C DEB now!
10-day predictions


NORAD ID: 31523
Int'l Code: 1999-025BXN
Perigee: 826.5 km
Apogee: 881.7 km
Inclination: 99.1 °
Period: 101.9 minutes
Semi major axis: 7225 km
RCS: 0.0108 m2 (small)
Launch date: May 10, 1999
Source: People's Republic of China (PRC)
Launch site: Taiyaun Space Center, China (TSC)

Note: This is SATELLITE DEBRIS
aabbcc
Your satellite tracking list
Your tracking list is empty




NASA's NSSDC Master Catalog

Two Line Element Set (TLE):
1 31523U 99025BXN 18202.28443383 -.00000037  00000-0  47863-5 0  9991
2 31523  99.0837 211.7088 0038195 196.9957 230.3109 14.13631404578804
Source of the keplerian elements: AFSPC